Location: Barrio Las Umbrías
(40.4173°N, 4.8685°W)
Time: 11:54:55
(UTC+00:00)

Cosmos 2173 Rocket - Pass Details

Date: 17 August 2022
Orbit: 943 x 1001 km, 83.0° (Epoch: 27 September)

Event Time Altitude Azimuth Distance (km) Brightness Sun altitude
Rises 20:42:12 0° 352° (N) 3,677 7.7 -15.9°
Reaches altitude 10° 20:44:44 10° 353° (N) 2,717 6.9 -16.3°
Maximum altitude 20:50:58 90° 71° (ENE) 964 3.9 -17.2°
Enters shadow 20:56:12 15° 175° (S) 2,344 5.6 -18.1°
